SCP
0 0 0 0 0 0 0 0 0 0 0 0 0 0 0 0 0 0 0 0 0 0 0 0 0 0 0 0 0 0 0 0 0 0 0 0 0 0 0 0 0 0 0
0 0 0 0 0 0 0 0 0 0 0 0 0 0 0 0 0 0 0 0 0 0 0 0 0 0 0 0 0 0 0 0 0 0 0 0 0 0 0 0 0 0 0
0 0 0 0 0 0 0 0 0 0 0 0 0 0 0 0 0 0 0 0 0 0 0 0 0 0 0 0 0 0 0 0 0 0 0 0 0 0 0 0 0 0 0
0 0 0 0 0 0 0 0 0 0 0 0 0 0 0 0 0 0 0 0 0 0 0 0 0 0 0 0 0 0 0 0 0 0 0 0 0 0 0 0 0 0 0
0 0 0 0 0 0 0 0 0 0 0 0 0 0 0 0 0 0 0 0 0 0 0 0 0 0 0 0 0 0 0 0 0 0 0 0 0 0 0 0 0 0 0
0 0 0 0 0 0 0 0 0 0 0 0 0 0 0 0 0 0 0 0 0 0 0 0 0 0 0 0 0 0 0 0 0 0 0 0 0 0 0 0 0 0 0
0 0 0 0 0 0 0 0 0 0 0 0 0 0 0 0 0 0 0 0 0 0 0 0 0 0 0 0 0 0 0 0 0 0 0 0 0 0 0 0 0 0 0
0 0 0 0 0 0 0 0 0 0 0 0 0 0 0 0 0 0 0 0 0 0 0 0 0 0 0 0 0 0 0 0 0 0 0 0 0 0 0 0 0 0 0
0 0 0 0 0 0 0 0 0 0 0 0 0 0 0 0 0 0 0 0 0 0 0 0 0 0 0 0 0 0 0 0 0 0 0 0 0 0 0 0 0 0 0
0 0 0 0 0 0 0 0 0 0 0 0 0 0 0 0 0 0 0 0 0 0 0 0 0 0 0 0 0 0 0 0 0 0 0 0 0 0 0 0 0 0 0
0 0 0 0 0 0 0 0 0 0 0 0 0 0 0 0 0 0 0 0 0 0 0 0 0 0 0 0 0 0 0 0 0 0 0 0 0 0 0 0 0 0 0
-0 -0 -0 -0 0 0 0 0 0 0 0 0 0 0 0 0 0 0 0 0 0 0 0 0 0 0 0 0 0 0 0 0 0 0 0 0 0 0 0 0 0 0 0
-0 -0 -0 -0 0 0 0 0 0 0 0 0 0 0 0 0 0 0 0 0 0 0 0 0 0 0 0 0 0 0 0 0 0 0 0 0 0 0 0 0 0 0 0
-0 -0 0 0 0 0 0 0 0 0 0 0 0 0 0 0 0 0 0 0 0 0 0 0 0 0 0 0 0 0 0 0 0 0 0 0 0 0 0 0 0 0 0
0 0 0 0 0 0 0 0 0 0 0 0 0 0 0 0 0 0 0 0 0 0 0 0 0 0 0 0 0 0 0 0 0 0 0 0 0 0 0 0 0 0 0
-0 -0 0 0 0 0 0 0 0 0 0 0 0 0 0 0 0 0 0 0 0 0 0 0 0 0 0 0 0 0 0 0 0 0 0 0 0 0 0 0 0 0 0
-0 -0 0 0 0 0 0 0 0 0 0 0 0 0 0 0 0 0 0 0 0 0 0 0 0 0 0 0 0 0 0 0 0 0 0 0 0 0 0 0 0 0 0
0 0 0 0 0 0 0 0 0 0 0 0 0 0 0 0 0 0 0 0 0 0 0 0 0 0 0 0 0 0 0 0 0 0 0 0 0 0 0 0 0 0 0
0 0 0 0 -0 -0 -0 0 0 0 0 0 0 0 0 0 0 0 0 0 0 0 0 0 0 0 0 0 0 0 0 0 0 0 0 0 0 0 0 0 0 0 0
-0 -0 -0 -0 -0 -0 -0 -0 0 0 0 0 0 0 0 0 0 0 0 0 0 0 0 0 0 0 0 0 0 0 0 0 0 0 0 0 0 0 0 0 0 0 0
-0 -0 -0 -0 -0 -0 -0 -0 -0 0 0 0 0 0 0 0 0 0 0 0 0 0 0 0 0 0 0 0 0 0 0 0 0 0 0 0 0 0 0 0 0 0 0
-0 -0 -0 -0 0 0 0 0 0 0 0 0 0 0 0 0 0 0 0 0 0 0 0 0 0 0 0 0 0 0 0 0 0 0 0 0 0 0 0 0 0 0 0
-0 -0 -0 -0 0 0 0 0 0 0 0 0 0 0 0 0 0 0 0 0 0 0 0 0 0 0 0 0 0 0 0 0 0 0 0 0 0 0 0 0 0 0 0
-0 -0 -0 -0 0 0 0 0 0 0 0 0 0 0 0 0 0 0 0 0 0 0 0 0 0 0 0 0 0 0 0 0 0 0 0 0 0 0 0 0 0 0 0
-0 -0 -0 -0 0 0 0 -0 -0 -0 0 0 0 0 0 0 0 0 0 0 0 0 0 0 0 0 0 0 0 0 0 0 0 0 0 0 0 0 0 0 0 0 0
-0 -0 -0 -0 -0 0 0 0 -0 -0 -0 0 0 0 0 0 0 0 0 0 0 0 0 0 0 0 0 0 0 0 0 0 0 0 0 0 0 0 0 0 0 0 0
Wind_Speed_500mb
45 45 42 47 51 51 56 58 58 61 57 65 70 67 63 62 58 56 56 55 52 54 53 52 50 49 49 46 41 38 35 36 32 36 37 39 38 40 42 39 29 27 31
48 47 48 49 54 59 59 57 62 61 67 70 72 76 73 69 63 62 63 61 56 54 56 57 56 55 54 51 47 45 42 39 38 39 23 22 27 37 22 21 27 29 35
61 56 48 58 63 67 68 64 62 68 71 72 71 64 63 64 67 67 68 69 64 63 59 58 59 60 57 56 53 53 52 47 43 45 34 17 15 14 23 24 38 32 40
68 69 67 65 67 73 74 73 70 68 73 74 70 78 82 80 81 78 77 74 71 71 69 63 61 62 62 60 59 57 56 51 46 46 51 53 49 26 31 34 35 40 52
57 60 66 70 70 61 70 75 72 72 72 74 79 79 79 82 78 75 73 71 75 74 75 71 68 67 65 63 62 62 61 60 60 59 54 55 54 52 58 52 50 42 49
36 39 43 50 53 57 61 71 75 76 72 75 79 85 82 82 75 76 67 71 74 76 76 78 76 75 74 73 69 65 63 61 62 64 60 56 51 42 47 53 60 63 63
14 19 22 26 33 40 51 67 68 73 78 77 80 85 87 86 83 75 74 73 74 77 78 77 81 80 77 75 74 73 72 71 69 68 69 68 64 59 59 58 63 68 72
21 25 25 27 33 40 44 48 57 62 69 79 83 84 86 86 88 83 79 79 78 73 70 69 68 68 68 69 71 74 76 76 75 74 70 66 62 59 62 65 65 69 67
26 30 44 38 32 33 37 42 46 50 57 68 77 84 86 90 91 89 84 83 78 73 71 68 65 64 65 67 67 71 73 74 73 72 66 63 60 59 59 60 61 62 49
16 35 52 65 58 49 40 41 49 55 58 61 71 78 84 92 92 89 89 87 83 78 73 69 64 63 64 67 69 71 69 69 69 65 59 57 58 57 55 54 54 53 58
26 44 52 56 64 66 66 54 43 48 52 57 63 70 79 82 87 91 90 87 82 80 75 70 67 65 66 67 68 70 69 68 64 60 56 61 60 58 57 53 48 47 52
36 43 53 63 62 67 63 67 54 42 45 49 56 62 68 74 80 85 87 85 85 81 78 76 72 68 68 66 68 70 71 67 63 59 63 62 59 57 55 48 51 56 47
41 54 53 54 68 74 63 65 68 49 43 45 47 54 61 65 70 74 78 79 78 78 77 77 75 72 71 70 70 69 63 60 61 63 66 63 57 57 51 53 51 48 45
54 56 72 72 70 69 66 66 61 57 53 52 49 51 54 59 63 68 70 70 70 71 70 71 71 70 69 66 62 61 60 63 65 63 63 54 57 56 59 53 51 51 48
48 64 74 83 81 75 70 70 59 63 59 57 60 59 57 60 62 64 67 67 68 67 67 68 64 63 61 60 61 61 64 64 60 58 54 53 56 56 59 59 55 54 51
70 77 74 73 73 74 75 76 66 56 64 68 63 62 61 59 60 61 62 63 65 68 68 68 68 66 64 63 64 62 63 60 56 58 58 57 53 57 58 59 48 41 38
75 69 66 65 67 68 70 72 71 64 57 66 69 62 58 56 56 56 59 60 61 61 61 60 58 57 57 58 58 58 53 52 54 58 56 54 50 48 46 39 38 39 37
63 57 55 68 75 73 71 73 70 69 65 66 70 65 59 55 53 53 54 55 56 56 57 58 58 58 58 59 59 57 58 57 53 49 49 48 40 39 33 32 34 34 35
47 57 69 83 88 77 73 72 77 71 71 70 67 69 68 65 59 58 59 59 59 61 61 60 61 60 59 57 55 50 47 48 50 50 48 43 38 34 33 32 32 32 33
63 75 81 88 94 88 75 69 81 84 83 74 68 69 79 78 73 68 66 66 64 64 65 66 65 60 55 53 51 49 46 47 48 47 45 38 35 37 34 32 31 31 32
77 88 96 98 100 90 84 89 88 89 83 78 71 71 80 87 83 78 75 71 70 70 70 67 64 61 59 56 52 50 47 45 45 44 40 35 33 33 33 32 29 30 30
90 94 94 95 92 96 87 87 97 89 78 76 82 79 77 88 93 89 84 78 75 73 72 69 68 66 62 59 56 51 47 45 43 41 37 32 32 33 33 32 31 28 26
96 100 101 104 99 96 93 86 88 87 80 73 71 81 86 85 97 97 90 84 81 80 78 76 74 71 67 62 58 53 51 48 47 45 39 37 36 36 34 29 26 26 23
78 91 104 107 109 98 99 97 88 84 81 78 71 78 84 88 96 98 95 91 91 89 86 82 78 76 71 67 64 60 57 52 50 51 46 40 36 33 29 26 26 24 20
95 90 99 105 107 99 100 98 94 84 84 79 78 75 79 90 97 100 99 97 97 96 91 87 82 81 81 75 64 61 60 58 56 51 48 44 39 36 32 29 25 22 20
103 97 104 98 104 99 95 95 92 86 82 78 81 78 77 82 97 100 102 98 96 93 87 80 77 75 72 65 60 57 54 52 52 50 46 43 39 36 33 29 27 23 18
Wind_Direction_500mb
250 245 236 227 228 228 229 224 223 231 224 229 229 229 230 232 230 230 236 236 237 238 237 236 236 237 240 244 245 248 246 243 239 255 270 271 275 281 281 293 285 284 293
251 249 239 230 227 238 234 233 229 227 230 232 236 237 238 236 239 239 240 238 238 240 240 239 240 241 243 244 245 245 246 243 243 253 260 281 286 292 278 287 287 287 285
250 248 241 235 240 241 239 243 243 238 230 235 232 233 239 241 235 237 243 241 239 242 242 242 242 244 246 248 249 248 249 246 247 253 247 257 256 285 283 277 296 290 288
247 247 246 241 247 249 245 251 254 247 235 234 227 232 237 234 242 241 243 246 244 242 245 243 243 245 246 248 250 252 254 254 245 255 253 257 256 265 284 286 287 281 287
247 251 249 249 248 250 254 256 250 245 241 231 233 233 234 243 244 245 242 245 247 245 245 246 245 246 247 250 250 252 252 253 256 255 256 259 266 266 263 271 279 284 287
257 259 260 260 255 251 248 254 254 247 241 236 234 237 239 240 242 242 238 238 246 248 245 243 244 246 248 249 252 254 256 256 259 260 257 255 254 261 259 268 277 283 286
296 282 276 266 261 268 261 248 254 248 242 240 240 240 241 244 246 240 242 237 240 247 248 244 244 246 249 252 254 255 256 257 258 260 260 261 258 258 261 265 270 277 284
323 317 308 294 283 281 275 258 252 250 244 239 244 243 245 243 245 246 242 244 247 249 249 251 250 250 250 251 252 253 254 255 256 258 259 261 262 264 266 270 275 275 277
357 13 14 358 328 312 281 265 258 260 252 243 243 244 246 245 244 245 246 246 248 248 249 251 250 248 247 247 248 250 253 254 256 258 261 262 264 268 270 271 272 276 276
42 12 7 1 355 345 320 283 269 259 255 250 244 247 248 246 246 243 243 246 247 249 246 248 249 247 245 246 246 249 253 254 256 257 257 262 266 267 269 271 272 274 278
356 354 354 359 349 348 349 338 294 264 257 254 253 248 248 247 246 244 244 245 245 246 249 249 247 246 245 245 248 250 252 252 252 254 258 264 268 267 267 269 271 274 271
345 350 345 341 349 339 341 343 331 288 270 271 262 254 251 249 246 245 244 243 245 248 249 248 247 246 247 246 247 248 249 252 252 255 261 262 262 263 265 266 268 271 269
336 333 335 334 328 327 331 337 338 316 292 286 273 261 255 252 249 244 243 245 245 245 245 245 246 248 247 246 247 249 252 252 254 258 259 258 258 259 259 260 264 269 263
330 330 325 324 323 316 318 318 322 326 312 292 285 274 262 256 250 246 244 242 241 242 243 245 246 248 249 248 248 247 250 252 252 254 254 248 255 258 261 266 261 259 260
311 312 309 316 319 317 322 319 315 308 316 307 289 280 270 259 251 245 242 241 242 244 243 245 247 246 246 244 244 245 246 248 246 250 250 255 258 263 263 267 267 264 265
295 295 297 304 309 314 316 316 322 310 299 303 297 284 276 265 255 250 246 243 241 240 241 241 242 243 243 243 242 241 243 246 242 250 252 252 256 260 262 264 256 259 259
287 297 302 311 313 314 313 309 316 315 302 295 292 283 276 266 255 245 241 239 239 239 237 237 238 239 239 239 238 235 238 238 240 250 254 252 255 259 256 249 239 238 238
296 306 315 316 315 313 309 305 311 309 305 298 288 277 270 259 250 244 239 236 234 235 237 238 238 239 239 240 240 238 236 238 239 240 243 246 249 246 241 238 234 223 227
331 325 319 316 317 315 316 303 303 306 300 297 295 278 267 256 244 239 238 236 236 238 238 238 236 236 236 237 238 235 229 228 231 235 235 233 235 238 232 237 235 232 232
318 322 325 324 323 317 318 306 302 300 299 299 293 288 268 257 247 242 239 239 238 238 236 234 232 231 229 229 225 225 226 227 225 223 223 225 228 228 229 234 241 238 234
317 320 322 319 317 311 311 314 313 301 301 299 292 280 270 257 250 246 241 239 238 235 233 232 231 228 224 223 224 226 223 220 217 215 219 224 220 219 221 227 233 236 235
318 319 319 317 314 316 311 307 307 317 308 294 291 280 272 257 248 245 242 239 235 233 231 228 226 223 220 220 222 218 212 210 212 214 218 216 212 215 222 223 225 229 231
317 316 315 314 313 317 316 307 307 311 308 299 290 281 272 259 247 241 239 235 232 230 228 226 224 223 218 216 211 209 207 206 206 210 215 219 214 219 224 223 223 228 232
314 312 312 310 307 314 312 308 305 307 307 299 289 282 274 259 245 239 236 233 231 228 227 225 224 222 219 213 209 206 205 204 205 209 211 214 215 218 217 213 214 224 233
311 312 310 309 305 308 305 304 302 303 302 298 288 279 274 262 243 237 237 233 233 233 231 228 226 223 219 215 213 211 207 206 207 207 206 205 205 208 210 212 215 216 216
310 309 310 308 305 304 301 299 300 300 296 292 284 275 267 261 246 236 231 230 232 233 231 229 228 222 222 218 210 207 205 201 200 197 197 195 198 200 200 198 201 201 204
Wind_Speed_850mb
45 45 42 47 51 51 56 58 58 61 57 65 70 67 63 62 58 56 56 55 52 54 53 52 50 49 49 46 41 38 35 36 32 36 37 39 38 40 42 39 29 27 31
48 47 48 49 54 59 59 57 62 61 67 70 72 76 73 69 63 62 63 61 56 54 56 57 56 55 54 51 47 45 42 39 38 39 23 22 27 37 22 21 27 29 35
61 56 48 58 63 67 68 64 62 68 71 72 71 64 63 64 67 67 68 69 64 63 59 58 59 60 57 56 53 53 52 47 43 45 34 17 15 14 23 24 38 32 40
68 69 67 65 67 73 74 73 70 68 73 74 70 78 82 80 81 78 77 74 71 71 69 63 61 62 62 60 59 57 56 51 46 46 51 53 49 26 31 34 35 40 52
57 60 66 70 70 61 70 75 72 72 72 74 79 79 79 82 78 75 73 71 75 74 75 71 68 67 65 63 62 62 61 60 60 59 54 55 54 52 58 52 50 42 49
36 39 43 50 53 57 61 71 75 76 72 75 79 85 82 82 75 76 67 71 74 76 76 78 76 75 74 73 69 65 63 61 62 64 60 56 51 42 47 53 60 63 63
14 19 22 26 33 40 51 67 68 73 78 77 80 85 87 86 83 75 74 73 74 77 78 77 81 80 77 75 74 73 72 71 69 68 69 68 64 59 59 58 63 68 72
21 25 25 27 33 40 44 48 57 62 69 79 83 84 86 86 88 83 79 79 78 73 70 69 68 68 68 69 71 74 76 76 75 74 70 66 62 59 62 65 65 69 67
26 30 44 38 32 33 37 42 46 50 57 68 77 84 86 90 91 89 84 83 78 73 71 68 65 64 65 67 67 71 73 74 73 72 66 63 60 59 59 60 61 62 49
16 35 52 65 58 49 40 41 49 55 58 61 71 78 84 92 92 89 89 87 83 78 73 69 64 63 64 67 69 71 69 69 69 65 59 57 58 57 55 54 54 53 58
26 44 52 56 64 66 66 54 43 48 52 57 63 70 79 82 87 91 90 87 82 80 75 70 67 65 66 67 68 70 69 68 64 60 56 61 60 58 57 53 48 47 52
36 43 53 63 62 67 63 67 54 42 45 49 56 62 68 74 80 85 87 85 85 81 78 76 72 68 68 66 68 70 71 67 63 59 63 62 59 57 55 48 51 56 47
41 54 53 54 68 74 63 65 68 49 43 45 47 54 61 65 70 74 78 79 78 78 77 77 75 72 71 70 70 69 63 60 61 63 66 63 57 57 51 53 51 48 45
54 56 72 72 70 69 66 66 61 57 53 52 49 51 54 59 63 68 70 70 70 71 70 71 71 70 69 66 62 61 60 63 65 63 63 54 57 56 59 53 51 51 48
48 64 74 83 81 75 70 70 59 63 59 57 60 59 57 60 62 64 67 67 68 67 67 68 64 63 61 60 61 61 64 64 60 58 54 53 56 56 59 59 55 54 51
70 77 74 73 73 74 75 76 66 56 64 68 63 62 61 59 60 61 62 63 65 68 68 68 68 66 64 63 64 62 63 60 56 58 58 57 53 57 58 59 48 41 38
75 69 66 65 67 68 70 72 71 64 57 66 69 62 58 56 56 56 59 60 61 61 61 60 58 57 57 58 58 58 53 52 54 58 56 54 50 48 46 39 38 39 37
63 57 55 68 75 73 71 73 70 69 65 66 70 65 59 55 53 53 54 55 56 56 57 58 58 58 58 59 59 57 58 57 53 49 49 48 40 39 33 32 34 34 35
47 57 69 83 88 77 73 72 77 71 71 70 67 69 68 65 59 58 59 59 59 61 61 60 61 60 59 57 55 50 47 48 50 50 48 43 38 34 33 32 32 32 33
63 75 81 88 94 88 75 69 81 84 83 74 68 69 79 78 73 68 66 66 64 64 65 66 65 60 55 53 51 49 46 47 48 47 45 38 35 37 34 32 31 31 32
77 88 96 98 100 90 84 89 88 89 83 78 71 71 80 87 83 78 75 71 70 70 70 67 64 61 59 56 52 50 47 45 45 44 40 35 33 33 33 32 29 30 30
90 94 94 95 92 96 87 87 97 89 78 76 82 79 77 88 93 89 84 78 75 73 72 69 68 66 62 59 56 51 47 45 43 41 37 32 32 33 33 32 31 28 26
96 100 101 104 99 96 93 86 88 87 80 73 71 81 86 85 97 97 90 84 81 80 78 76 74 71 67 62 58 53 51 48 47 45 39 37 36 36 34 29 26 26 23
78 91 104 107 109 98 99 97 88 84 81 78 71 78 84 88 96 98 95 91 91 89 86 82 78 76 71 67 64 60 57 52 50 51 46 40 36 33 29 26 26 24 20
95 90 99 105 107 99 100 98 94 84 84 79 78 75 79 90 97 100 99 97 97 96 91 87 82 81 81 75 64 61 60 58 56 51 48 44 39 36 32 29 25 22 20
103 97 104 98 104 99 95 95 92 86 82 78 81 78 77 82 97 100 102 98 96 93 87 80 77 75 72 65 60 57 54 52 52 50 46 43 39 36 33 29 27 23 18
Wind_Direction_850mb
250 245 236 227 228 228 229 224 223 231 224 229 229 229 230 232 230 230 236 236 237 238 237 236 236 237 240 244 245 248 246 243 239 255 270 271 275 281 281 293 285 284 293
251 249 239 230 227 238 234 233 229 227 230 232 236 237 238 236 239 239 240 238 238 240 240 239 240 241 243 244 245 245 246 243 243 253 260 281 286 292 278 287 287 287 285
250 248 241 235 240 241 239 243 243 238 230 235 232 233 239 241 235 237 243 241 239 242 242 242 242 244 246 248 249 248 249 246 247 253 247 257 256 285 283 277 296 290 288
247 247 246 241 247 249 245 251 254 247 235 234 227 232 237 234 242 241 243 246 244 242 245 243 243 245 246 248 250 252 254 254 245 255 253 257 256 265 284 286 287 281 287
247 251 249 249 248 250 254 256 250 245 241 231 233 233 234 243 244 245 242 245 247 245 245 246 245 246 247 250 250 252 252 253 256 255 256 259 266 266 263 271 279 284 287
257 259 260 260 255 251 248 254 254 247 241 236 234 237 239 240 242 242 238 238 246 248 245 243 244 246 248 249 252 254 256 256 259 260 257 255 254 261 259 268 277 283 286
296 282 276 266 261 268 261 248 254 248 242 240 240 240 241 244 246 240 242 237 240 247 248 244 244 246 249 252 254 255 256 257 258 260 260 261 258 258 261 265 270 277 284
323 317 308 294 283 281 275 258 252 250 244 239 244 243 245 243 245 246 242 244 247 249 249 251 250 250 250 251 252 253 254 255 256 258 259 261 262 264 266 270 275 275 277
357 13 14 358 328 312 281 265 258 260 252 243 243 244 246 245 244 245 246 246 248 248 249 251 250 248 247 247 248 250 253 254 256 258 261 262 264 268 270 271 272 276 276
42 12 7 1 355 345 320 283 269 259 255 250 244 247 248 246 246 243 243 246 247 249 246 248 249 247 245 246 246 249 253 254 256 257 257 262 266 267 269 271 272 274 278
356 354 354 359 349 348 349 338 294 264 257 254 253 248 248 247 246 244 244 245 245 246 249 249 247 246 245 245 248 250 252 252 252 254 258 264 268 267 267 269 271 274 271
345 350 345 341 349 339 341 343 331 288 270 271 262 254 251 249 246 245 244 243 245 248 249 248 247 246 247 246 247 248 249 252 252 255 261 262 262 263 265 266 268 271 269
336 333 335 334 328 327 331 337 338 316 292 286 273 261 255 252 249 244 243 245 245 245 245 245 246 248 247 246 247 249 252 252 254 258 259 258 258 259 259 260 264 269 263
330 330 325 324 323 316 318 318 322 326 312 292 285 274 262 256 250 246 244 242 241 242 243 245 246 248 249 248 248 247 250 252 252 254 254 248 255 258 261 266 261 259 260
311 312 309 316 319 317 322 319 315 308 316 307 289 280 270 259 251 245 242 241 242 244 243 245 247 246 246 244 244 245 246 248 246 250 250 255 258 263 263 267 267 264 265
295 295 297 304 309 314 316 316 322 310 299 303 297 284 276 265 255 250 246 243 241 240 241 241 242 243 243 243 242 241 243 246 242 250 252 252 256 260 262 264 256 259 259
287 297 302 311 313 314 313 309 316 315 302 295 292 283 276 266 255 245 241 239 239 239 237 237 238 239 239 239 238 235 238 238 240 250 254 252 255 259 256 249 239 238 238
296 306 315 316 315 313 309 305 311 309 305 298 288 277 270 259 250 244 239 236 234 235 237 238 238 239 239 240 240 238 236 238 239 240 243 246 249 246 241 238 234 223 227
331 325 319 316 317 315 316 303 303 306 300 297 295 278 267 256 244 239 238 236 236 238 238 238 236 236 236 237 238 235 229 228 231 235 235 233 235 238 232 237 235 232 232
318 322 325 324 323 317 318 306 302 300 299 299 293 288 268 257 247 242 239 239 238 238 236 234 232 231 229 229 225 225 226 227 225 223 223 225 228 228 229 234 241 238 234
317 320 322 319 317 311 311 314 313 301 301 299 292 280 270 257 250 246 241 239 238 235 233 232 231 228 224 223 224 226 223 220 217 215 219 224 220 219 221 227 233 236 235
318 319 319 317 314 316 311 307 307 317 308 294 291 280 272 257 248 245 242 239 235 233 231 228 226 223 220 220 222 218 212 210 212 214 218 216 212 215 222 223 225 229 231
317 316 315 314 313 317 316 307 307 311 308 299 290 281 272 259 247 241 239 235 232 230 228 226 224 223 218 216 211 209 207 206 206 210 215 219 214 219 224 223 223 228 232
314 312 312 310 307 314 312 308 305 307 307 299 289 282 274 259 245 239 236 233 231 228 227 225 224 222 219 213 209 206 205 204 205 209 211 214 215 218 217 213 214 224 233
311 312 310 309 305 308 305 304 302 303 302 298 288 279 274 262 243 237 237 233 233 233 231 228 226 223 219 215 213 211 207 206 207 207 206 205 205 208 210 212 215 216 216
310 309 310 308 305 304 301 299 300 300 296 292 284 275 267 261 246 236 231 230 232 233 231 229 228 222 222 218 210 207 205 201 200 197 197 195 198 200 200 198 201 201 204